Home   Weather   St. Pölten   Past weeks

Flag for Austria Past Weather in St. Pölten, Lower Austria, Austria — Yesterday and Last 2 Weeks

Now
66 °F

Passing clouds.


Feels Like: 66 °F
Forecast: 64 / 81 °F
Wind: 17 mph from West

Location: Tulln Airport

Current Time: Jul 21, 2017 at 12:42:28 am

Latest Report: Jul 20, 2017 at 10:50 pm


Visibility: 11 mi

Pressure: 29.95 "Hg

Humidity: 88%

Dew Point: 63 °F

Location of St. PöltenLocation

Past Weather in St. Pölten — Graph

°F

St. Pölten Temperature Yesterday

Maximum temperature yesterday: 93 °F (at 1:50 pm)
Minimum temperature yesterday: 66 °F (at 9:50 pm)
Average temperature yesterday: 85 °F

High & Low Weather Summary for the Past Weeks

 TemperatureHumidityPressure
High93 °F (Jul 20, 1:50 pm)100% (Jul 16, 5:50 am)30.27 "Hg (Jul 16, 5:50 am)
Low48 °F (Jul 14, 5:50 am)24% (Jul 13, 4:50 pm)29.77 "Hg (Jul 10, 3:20 pm)
Average74 °F57%30.00 "Hg
* Reported Jul 5 10:50 pm — Jul 20 10:50 pm, St. Pölten. Weather by CustomWeather, © 2017

Note: Actual official high and low records may vary slightly from our data, if they occured in-between our weather recording intervals... More about our weather records

Advertising

St. Pölten Weather History for the Previous 24 Hours

Scroll right to see more
 ConditionsComfort  
Time TempWeatherWind HumidityBarometerVisibility
10:50 pm
Thu, Jul 20
66 °FPassing clouds.17 mph88%29.95 "Hg11 mi
9:50 pm66 °FPartly cloudy.24 mph88%29.95 "Hg12 mi
8:50 pm82 °FPartly cloudy.30 mph48%29.83 "Hg12 mi
7:50 pm86 °FBroken clouds.5 mph43%29.77 "Hg25 mi
6:50 pm90 °FPartly sunny.6 mph33%29.77 "Hg25 mi
5:50 pm90 °FPartly sunny.6 mph36%29.77 "Hg25 mi
4:50 pm91 °FScattered clouds.5 mph30%29.80 "Hg22 mi
3:50 pm93 °FPassing clouds.5 mph28%29.80 "Hg25 mi
3:20 pm93 °FPassing clouds.8 mph28%29.80 "Hg25 mi
2:50 pm93 °FPassing clouds.9 mph30%29.83 "Hg25 mi
1:50 pm93 °FScattered clouds.9 mph30%29.83 "Hg31 mi
1:20 pm90 °FScattered clouds.13 mph36%29.83 "Hg37 mi
12:20 pm88 °FPassing clouds.13 mph38%29.86 "Hg37 mi
11:50 am86 °FPassing clouds.13 mph40%29.86 "Hg37 mi
11:20 am86 °FPassing clouds.9 mph40%29.89 "Hg37 mi
10:20 am82 °FScattered clouds.7 mph48%29.89 "Hg37 mi
9:50 am77 °FScattered clouds.7 mph61%29.89 "Hg37 mi
Weather by CustomWeather, © 2017

See weather overviewHow to use our weather pages